Location: Batang Balui
(2.7000°N, 113.7833°E)
Time: 07:06:50
(UTC+00:00)

Hubble Space Telescope - Visible Passes

Search period start: 02 December 2022 00:00
Search period end: 12 December 2022 00:00
Orbit: 530 x 534 km, 28.5° (Epoch: 01 December)

Date Brightness Start Highest point End Pass type
(mag) Time Alt. Az. Time Alt. Az. Time Alt. Az.
02 Dec 1.4 20:27:33 54° ESE 20:27:33 54° ESE 20:31:01 10° ENE visible
03 Dec 2.8 20:16:49 23° ENE 20:16:49 23° ENE 20:18:26 10° ENE visible
03 Dec 2.5 21:52:52 10° WNW 21:55:27 16° NNW 21:58:02 10° NNE visible
04 Dec 2.8 21:41:14 10° NW 21:42:53 12° NNW 21:44:39 10° N visible
